Time,TemperatureF,DewpointF,PressureIn,WindDirection,WindDirectionDegrees,WindSpeedMPH,WindSpeedGustMPH,Humidity,HourlyPrecipIn,Conditions,Clouds,dailyrainin,SoftwareType,DateUTC
2013-04-22 00:00:00,56.8,48.3,30.00,SSE,167,0.0,0.0,73,0.00,,,0.00,Weather View 32 v70,2013-04-22 05:00:00,
2013-04-22 00:10:00,57.0,48.4,30.00,SSE,167,0.0,0.0,73,0.00,,,0.00,Weather View 32 v70,2013-04-22 05:10:00,
2013-04-22 00:15:00,57.2,48.6,30.00,SSE,167,0.0,0.0,73,0.00,,,0.00,Weather View 32 v70,2013-04-22 05:15:00,
2013-04-22 00:22:00,57.2,48.6,30.00,SSE,167,0.0,0.0,73,0.00,,,0.00,Weather View 32 v70,2013-04-22 05:22:00,
2013-04-22 00:30:00,56.8,48.3,30.00,SSE,167,0.0,0.0,73,0.00,,,0.00,Weather View 32 v70,2013-04-22 05:30:00,
2013-04-22 00:35:00,56.8,48.3,30.00,SSE,167,0.0,0.0,73,0.00,,,0.00,Weather View 32 v70,2013-04-22 05:35:00,
2013-04-22 00:45:00,56.7,48.1,30.00,SSE,167,0.0,0.0,73,0.00,,,0.00,Weather View 32 v70,2013-04-22 05:45:00,
2013-04-22 00:50:00,56.5,47.9,30.00,SSE,167,0.0,0.0,73,0.00,,,0.00,Weather View 32 v70,2013-04-22 05:50:00,
2013-04-22 01:15:00,56.1,47.6,30.00,SSE,167,0.0,0.0,73,0.00,,,0.00,Weather View 32 v70,2013-04-22 06:15:00,
2013-04-22 01:25:00,55.8,47.2,29.97,SSE,167,0.0,0.0,73,0.00,,,0.00,Weather View 32 v70,2013-04-22 06:25:00,
2013-04-22 01:35:00,55.8,47.2,29.97,SSE,167,0.0,0.0,73,0.00,,,0.00,Weather View 32 v70,2013-04-22 06:35:00,
2013-04-22 01:45:00,55.8,47.2,29.97,SSE,167,0.0,0.0,73,0.00,,,0.00,Weather View 32 v70,2013-04-22 06:45:00,
2013-04-22 01:55:00,55.6,47.0,29.97,SSE,167,0.0,0.0,73,0.00,,,0.00,Weather View 32 v70,2013-04-22 06:55:00,
2013-04-22 02:00:00,55.4,46.9,29.97,SSE,167,0.0,0.0,73,0.00,,,0.00,Weather View 32 v70,2013-04-22 07:00:00,
2013-04-22 02:05:00,55.0,46.5,29.97,SSE,167,0.0,0.0,73,0.00,,,0.00,Weather View 32 v70,2013-04-22 07:05:00,
2013-04-22 02:14:00,55.0,46.9,29.97,SSE,167,0.0,0.0,74,0.00,,,0.00,Weather View 32 v70,2013-04-22 07:14:00,
2013-04-22 02:20:00,54.9,46.7,29.97,SSE,167,0.0,0.0,74,0.00,,,0.00,Weather View 32 v70,2013-04-22 07:20:00,
2013-04-22 02:25:00,55.0,47.2,29.97,SSE,167,0.0,0.0,75,0.00,,,0.00,Weather View 32 v70,2013-04-22 07:25:00,
2013-04-22 02:30:00,55.0,47.2,29.97,SSE,167,0.0,0.0,75,0.00,,,0.00,Weather View 32 v70,2013-04-22 07:30:00,
2013-04-22 02:40:00,55.0,47.2,29.94,SSE,167,0.0,0.0,75,0.00,,,0.00,Weather View 32 v70,2013-04-22 07:40:00,
2013-04-22 02:45:00,55.0,47.2,29.94,SSE,167,0.0,0.0,75,0.00,,,0.00,Weather View 32 v70,2013-04-22 07:45:00,
2013-04-22 02:54:00,54.9,47.1,29.94,SSE,167,0.0,0.0,75,0.00,,,0.00,Weather View 32 v70,2013-04-22 07:54:00,
2013-04-22 02:59:00,54.5,46.7,29.94,SSE,167,0.0,0.0,75,0.00,,,0.00,Weather View 32 v70,2013-04-22 07:59:00,
2013-04-22 03:05:00,54.3,46.2,29.94,SSE,167,0.0,0.0,74,0.00,,,0.00,Weather View 32 v70,2013-04-22 08:05:00,
2013-04-22 03:10:00,54.3,46.5,29.94,SSE,167,0.0,0.0,75,0.00,,,0.00,Weather View 32 v70,2013-04-22 08:10:00,
2013-04-22 03:20:00,54.9,47.4,29.91,SSE,167,0.0,0.0,76,0.00,,,0.00,Weather View 32 v70,2013-04-22 08:20:00,
2013-04-22 03:25:00,54.9,47.4,29.91,SSE,167,0.0,0.0,76,0.00,,,0.00,Weather View 32 v70,2013-04-22 08:25:00,
2013-04-22 03:35:00,54.5,47.1,29.94,SSE,167,0.0,0.0,76,0.00,,,0.00,Weather View 32 v70,2013-04-22 08:35:00,
2013-04-22 03:40:00,54.7,47.2,29.94,SSE,167,0.0,0.0,76,0.00,,,0.00,Weather View 32 v70,2013-04-22 08:40:00,
2013-04-22 03:45:00,54.9,47.4,29.94,SSE,167,0.0,0.0,76,0.00,,,0.00,Weather View 32 v70,2013-04-22 08:45:00,
2013-04-22 03:55:00,55.2,47.8,29.94,SSE,167,0.0,0.0,76,0.00,,,0.00,Weather View 32 v70,2013-04-22 08:55:00,
2013-04-22 04:05:00,54.9,47.1,29.94,SSE,167,0.0,0.0,75,0.00,,,0.00,Weather View 32 v70,2013-04-22 09:05:00,
2013-04-22 04:15:00,54.9,47.1,29.94,SSE,167,0.0,0.0,75,0.00,,,0.00,Weather View 32 v70,2013-04-22 09:15:00,
2013-04-22 04:25:00,54.7,46.9,29.94,SSE,167,0.0,0.0,75,0.00,,,0.00,Weather View 32 v70,2013-04-22 09:25:00,
2013-04-22 04:30:00,54.9,47.1,29.94,SSE,167,0.0,0.0,75,0.00,,,0.00,Weather View 32 v70,2013-04-22 09:30:00,
2013-04-22 04:35:00,54.9,47.1,29.94,SSE,167,0.0,0.0,75,0.00,,,0.00,Weather View 32 v70,2013-04-22 09:35:00,
2013-04-22 04:44:00,55.0,47.2,29.94,SSE,167,0.0,0.0,75,0.00,,,0.00,Weather View 32 v70,2013-04-22 09:44:00,
2013-04-22 04:50:00,54.9,47.1,29.94,SSE,167,0.0,0.0,75,0.00,,,0.00,Weather View 32 v70,2013-04-22 09:50:00,
2013-04-22 04:55:00,55.0,46.9,29.94,SSE,167,0.0,0.0,74,0.00,,,0.00,Weather View 32 v70,2013-04-22 09:55:00,
2013-04-22 05:05:00,55.2,47.1,29.94,SSE,167,0.0,0.0,74,0.00,,,0.00,Weather View 32 v70,2013-04-22 10:05:00,
2013-04-22 05:14:00,55.0,46.5,29.94,SSE,167,0.0,0.0,73,0.00,,,0.00,Weather View 32 v70,2013-04-22 10:14:00,
2013-04-22 05:20:00,54.9,46.4,29.94,SSE,167,0.0,0.0,73,0.00,,,0.00,Weather View 32 v70,2013-04-22 10:20:00,
2013-04-22 05:25:00,54.9,46.0,29.94,SSE,167,0.0,0.0,72,0.00,,,0.00,Weather View 32 v70,2013-04-22 10:25:00,
2013-04-22 05:30:00,54.9,46.0,29.94,SSE,167,0.0,0.0,72,0.00,,,0.00,Weather View 32 v70,2013-04-22 10:30:00,
2013-04-22 05:40:00,54.9,46.0,29.94,SSE,167,0.0,0.0,72,0.00,,,0.00,Weather View 32 v70,2013-04-22 10:40:00,
2013-04-22 05:46:00,54.7,45.4,29.94,SSE,167,0.0,0.0,71,0.00,,,0.00,Weather View 32 v70,2013-04-22 10:46:00,
2013-04-22 05:52:00,54.7,45.1,29.94,SSE,167,0.0,0.0,70,0.00,,,0.00,Weather View 32 v70,2013-04-22 10:52:00,
2013-04-22 06:00:00,54.5,44.9,29.94,SSE,167,0.0,0.0,70,0.00,,,0.00,Weather View 32 v70,2013-04-22 11:00:00,
2013-04-22 06:05:00,54.5,44.9,29.94,SSE,167,0.0,0.0,70,0.00,,,0.00,Weather View 32 v70,2013-04-22 11:05:00,
2013-04-22 06:10:00,54.5,44.9,29.94,SSE,167,0.0,0.0,70,0.00,,,0.00,Weather View 32 v70,2013-04-22 11:10:00,
2013-04-22 06:16:00,54.5,44.9,29.94,SSE,167,0.0,0.0,70,0.00,,,0.00,Weather View 32 v70,2013-04-22 11:16:00,
2013-04-22 06:25:00,54.7,44.7,29.94,SSE,167,0.0,0.0,69,0.00,,,0.00,Weather View 32 v70,2013-04-22 11:25:00,
2013-04-22 06:30:00,54.9,44.9,29.94,SSE,167,0.0,0.0,69,0.00,,,0.00,Weather View 32 v70,2013-04-22 11:30:00,
2013-04-22 06:40:00,55.0,44.6,29.97,ENE,62,0.0,0.0,68,0.00,,,0.00,Weather View 32 v70,2013-04-22 11:40:00,
2013-04-22 06:45:00,55.2,44.8,29.97,ENE,62,0.0,0.0,68,0.00,,,0.00,Weather View 32 v70,2013-04-22 11:45:00,
2013-04-22 06:55:00,55.2,44.4,29.97,ENE,60,0.0,0.0,67,0.00,,,0.00,Weather View 32 v70,2013-04-22 11:55:00,
2013-04-22 07:00:00,55.2,44.4,29.97,ENE,60,0.0,0.0,67,0.00,,,0.00,Weather View 32 v70,2013-04-22 12:00:00,
2013-04-22 07:10:00,55.4,44.2,29.97,NE,50,0.0,0.0,66,0.00,,,0.00,Weather View 32 v70,2013-04-22 12:10:00,
2013-04-22 07:17:00,55.6,44.4,29.97,NNE,28,0.0,0.0,66,0.00,,,0.00,Weather View 32 v70,2013-04-22 12:17:00,
2013-04-22 07:25:00,55.9,44.7,29.97,NNW,340,0.0,3.0,66,0.00,,,0.00,Weather View 32 v70,2013-04-22 12:25:00,
2013-04-22 07:30:00,56.1,44.5,29.97,North,2,0.0,3.0,65,0.00,,,0.00,Weather View 32 v70,2013-04-22 12:30:00,
2013-04-22 07:39:00,56.7,45.0,29.97,North,4,0.0,3.0,65,0.00,,,0.00,Weather View 32 v70,2013-04-22 12:39:00,
2013-04-22 07:45:00,56.8,45.2,29.97,North,4,0.0,3.0,65,0.00,,,0.00,Weather View 32 v70,2013-04-22 12:45:00,
2013-04-22 07:54:00,57.0,44.9,29.97,NW,317,0.0,3.0,64,0.00,,,0.00,Weather View 32 v70,2013-04-22 12:54:00,
2013-04-22 08:00:00,57.4,45.3,29.97,NW,321,0.0,3.0,64,0.00,,,0.00,Weather View 32 v70,2013-04-22 13:00:00,
2013-04-22 08:10:00,57.9,45.8,29.97,North,1,0.0,3.0,64,0.00,,,0.00,Weather View 32 v70,2013-04-22 13:10:00,
2013-04-22 08:15:00,58.1,46.0,29.97,NW,322,0.0,3.0,64,0.00,,,0.00,Weather View 32 v70,2013-04-22 13:15:00,
2013-04-22 08:20:00,58.3,46.1,29.97,NNW,346,0.0,3.0,64,0.00,,,0.00,Weather View 32 v70,2013-04-22 13:20:00,
2013-04-22 08:25:00,58.6,46.9,29.97,North,353,0.0,3.0,65,0.00,,,0.00,Weather View 32 v70,2013-04-22 13:25:00,
2013-04-22 08:30:00,59.0,46.8,29.97,NNE,12,4.0,4.0,64,0.00,,,0.00,Weather View 32 v70,2013-04-22 13:30:00,
2013-04-22 08:39:00,59.5,47.3,30.00,North,7,0.0,4.0,64,0.00,,,0.00,Weather View 32 v70,2013-04-22 13:39:00,
2013-04-22 08:44:00,59.7,47.5,30.00,North,7,0.0,4.0,64,0.00,,,0.00,Weather View 32 v70,2013-04-22 13:44:00,
2013-04-22 08:49:00,60.3,48.4,30.00,North,7,0.0,4.0,65,0.00,,,0.00,Weather View 32 v70,2013-04-22 13:49:00,
2013-04-22 08:54:00,60.6,48.8,30.00,NNE,22,0.0,4.0,65,0.00,,,0.00,Weather View 32 v70,2013-04-22 13:54:00,
2013-04-22 08:59:00,61.0,48.7,30.00,NNE,22,0.0,4.0,64,0.00,,,0.00,Weather View 32 v70,2013-04-22 13:59:00,
2013-04-22 09:05:00,61.3,49.0,30.00,NNE,21,0.0,4.0,64,0.00,,,0.00,Weather View 32 v70,2013-04-22 14:05:00,
2013-04-22 09:10:00,61.7,49.4,30.00,NE,48,0.0,4.0,64,0.00,,,0.00,Weather View 32 v70,2013-04-22 14:10:00,
2013-04-22 09:15:00,62.1,49.7,30.00,NE,48,0.0,4.0,64,0.00,,,0.00,Weather View 32 v70,2013-04-22 14:15:00,
2013-04-22 09:20:00,62.4,50.0,30.00,NE,45,0.0,4.0,64,0.00,,,0.00,Weather View 32 v70,2013-04-22 14:20:00,
2013-04-22 09:29:00,63.7,51.2,30.00,ENE,68,0.0,4.0,64,0.00,,,0.00,Weather View 32 v70,2013-04-22 14:29:00,
2013-04-22 09:35:00,64.4,51.5,30.00,ENE,67,0.0,4.0,63,0.00,,,0.00,Weather View 32 v70,2013-04-22 14:35:00,
2013-04-22 09:44:00,65.1,52.2,30.00,NE,55,0.0,4.0,63,0.00,,,0.00,Weather View 32 v70,2013-04-22 14:44:00,
2013-04-22 09:50:00,65.7,52.7,30.00,NE,42,2.0,4.0,63,0.00,,,0.00,Weather View 32 v70,2013-04-22 14:50:00,
2013-04-22 09:55:00,66.0,53.0,30.00,ENE,67,0.0,4.0,63,0.00,,,0.00,Weather View 32 v70,2013-04-22 14:55:00,
2013-04-22 10:00:00,66.2,52.8,30.00,East,82,0.0,4.0,62,0.00,,,0.00,Weather View 32 v70,2013-04-22 15:00:00,
2013-04-22 10:05:00,66.4,53.4,30.00,ENE,65,3.0,4.0,63,0.00,,,0.00,Weather View 32 v70,2013-04-22 15:05:00,
2013-04-22 10:10:00,66.9,53.9,30.00,ENE,60,3.0,5.0,63,0.00,,,0.00,Weather View 32 v70,2013-04-22 15:10:00,
2013-04-22 10:15:00,67.8,54.7,30.00,ENE,61,3.0,5.0,63,0.00,,,0.00,Weather View 32 v70,2013-04-22 15:15:00,
2013-04-22 10:25:00,69.1,53.6,30.00,NE,52,0.0,5.0,58,0.00,,,0.00,Weather View 32 v70,2013-04-22 15:25:00,
2013-04-22 10:29:00,69.4,53.5,30.00,ENE,74,3.0,5.0,57,0.00,,,0.00,Weather View 32 v70,2013-04-22 15:29:00,
2013-04-22 10:35:00,69.6,53.7,30.00,ENE,70,3.0,5.0,57,0.00,,,0.00,Weather View 32 v70,2013-04-22 15:35:00,
2013-04-22 10:40:00,70.2,53.7,30.00,NE,49,2.0,5.0,56,0.00,,,0.00,Weather View 32 v70,2013-04-22 15:40:00,
2013-04-22 10:50:00,71.1,54.5,30.00,East,100,0.0,5.0,56,0.00,,,0.00,Weather View 32 v70,2013-04-22 15:50:00,
2013-04-22 11:00:00,71.8,53.2,30.00,ENE,60,2.0,5.0,52,0.00,,,0.00,Weather View 32 v70,2013-04-22 16:00:00,
2013-04-22 11:05:00,71.8,53.7,30.00,NE,53,0.0,5.0,53,0.00,,,0.00,Weather View 32 v70,2013-04-22 16:05:00,
2013-04-22 11:10:00,71.6,53.5,30.00,East,101,2.0,5.0,53,0.00,,,0.00,Weather View 32 v70,2013-04-22 16:10:00,
2013-04-22 11:15:00,71.6,54.0,30.00,East,87,2.0,5.0,54,0.00,,,0.00,Weather View 32 v70,2013-04-22 16:15:00,
2013-04-22 11:25:00,71.8,54.2,30.00,ENE,57,2.0,5.0,54,0.00,,,0.00,Weather View 32 v70,2013-04-22 16:25:00,
2013-04-22 11:30:00,72.3,54.2,30.00,ENE,60,0.0,5.0,53,0.00,,,0.00,Weather View 32 v70,2013-04-22 16:30:00,
2013-04-22 11:35:00,72.7,54.0,30.00,ENE,75,3.0,4.0,52,0.00,,,0.00,Weather View 32 v70,2013-04-22 16:35:00,
2013-04-22 11:40:00,72.5,53.3,30.00,ENE,76,0.0,4.0,51,0.00,,,0.00,Weather View 32 v70,2013-04-22 16:40:00,
2013-04-22 11:50:00,72.3,53.7,30.00,ENE,58,0.0,4.0,52,0.00,,,0.00,Weather View 32 v70,2013-04-22 16:50:00,
2013-04-22 12:00:00,72.5,54.3,30.00,ENE,57,0.0,4.0,53,0.00,,,0.00,Weather View 32 v70,2013-04-22 17:00:00,
2013-04-22 12:10:00,73.4,54.1,30.00,East,93,0.0,4.0,51,0.00,,,0.00,Weather View 32 v70,2013-04-22 17:10:00,
2013-04-22 12:19:00,73.9,54.1,30.00,East,83,3.0,5.0,50,0.00,,,0.00,Weather View 32 v70,2013-04-22 17:19:00,
2013-04-22 12:24:00,73.6,53.2,29.97,East,94,0.0,5.0,49,0.00,,,0.00,Weather View 32 v70,2013-04-22 17:24:00,
2013-04-22 12:30:00,73.9,53.5,29.97,ENE,72,0.0,5.0,49,0.00,,,0.00,Weather View 32 v70,2013-04-22 17:30:00,
2013-04-22 12:35:00,73.9,53.5,29.97,East,96,4.0,5.0,49,0.00,,,0.00,Weather View 32 v70,2013-04-22 17:35:00,
2013-04-22 12:40:00,73.9,53.5,29.97,NE,53,3.0,5.0,49,0.00,,,0.00,Weather View 32 v70,2013-04-22 17:40:00,
2013-04-22 12:45:00,73.6,52.6,29.97,East,82,0.0,6.0,48,0.00,,,0.00,Weather View 32 v70,2013-04-22 17:45:00,
2013-04-22 12:50:00,73.4,52.5,29.97,ESE,106,0.0,6.0,48,0.00,,,0.00,Weather View 32 v70,2013-04-22 17:50:00,
2013-04-22 12:55:00,73.4,52.5,29.97,East,90,0.0,6.0,48,0.00,,,0.00,Weather View 32 v70,2013-04-22 17:55:00,
2013-04-22 13:05:00,73.2,53.4,29.97,East,81,3.0,6.0,50,0.00,,,0.00,Weather View 32 v70,2013-04-22 18:05:00,
2013-04-22 13:15:00,73.4,54.1,29.97,East,81,0.0,6.0,51,0.00,,,0.00,Weather View 32 v70,2013-04-22 18:15:00,
2013-04-22 13:20:00,73.2,54.0,29.97,East,83,0.0,6.0,51,0.00,,,0.00,Weather View 32 v70,2013-04-22 18:20:00,
2013-04-22 13:28:00,73.6,54.3,29.97,ENE,77,0.0,6.0,51,0.00,,,0.00,Weather View 32 v70,2013-04-22 18:28:00,
2013-04-22 13:35:00,74.7,54.2,29.97,ENE,73,3.0,6.0,49,0.00,,,0.00,Weather View 32 v70,2013-04-22 18:35:00,
2013-04-22 13:40:00,74.7,54.2,29.97,ENE,71,5.0,6.0,49,0.00,,,0.00,Weather View 32 v70,2013-04-22 18:40:00,
2013-04-22 13:45:00,75.2,54.7,29.97,South,172,3.0,6.0,49,0.00,,,0.00,Weather View 32 v70,2013-04-22 18:45:00,
2013-04-22 13:55:00,75.7,55.2,29.94,ENE,73,4.0,7.0,49,0.00,,,0.00,Weather View 32 v70,2013-04-22 18:55:00,
2013-04-22 14:05:00,76.3,54.5,29.94,SE,130,5.0,7.0,47,0.00,,,0.00,Weather View 32 v70,2013-04-22 19:05:00,
2013-04-22 14:15:00,76.5,54.7,29.94,SSE,154,0.0,7.0,47,0.00,,,0.00,Weather View 32 v70,2013-04-22 19:15:00,
2013-04-22 14:21:00,76.5,54.7,29.94,East,86,0.0,7.0,47,0.00,,,0.00,Weather View 32 v70,2013-04-22 19:21:00,
2013-04-22 14:30:00,76.5,54.7,29.94,East,88,0.0,7.0,47,0.00,,,0.00,Weather View 32 v70,2013-04-22 19:30:00,
2013-04-22 14:39:00,76.6,54.8,29.94,ESE,104,5.0,7.0,47,0.00,,,0.00,Weather View 32 v70,2013-04-22 19:39:00,
2013-04-22 14:45:00,76.6,53.6,29.94,East,92,3.0,7.0,45,0.00,,,0.00,Weather View 32 v70,2013-04-22 19:45:00,
2013-04-22 14:50:00,76.6,54.2,29.94,East,100,3.0,8.0,46,0.00,,,0.00,Weather View 32 v70,2013-04-22 19:50:00,
2013-04-22 15:00:00,76.8,54.4,29.94,SSE,156,2.0,8.0,46,0.00,,,0.00,Weather View 32 v70,2013-04-22 20:00:00,
2013-04-22 15:09:00,77.2,54.7,29.94,East,83,3.0,8.0,46,0.00,,,0.00,Weather View 32 v70,2013-04-22 20:09:00,
2013-04-22 15:15:00,77.4,54.9,29.94,East,81,0.0,8.0,46,0.00,,,0.00,Weather View 32 v70,2013-04-22 20:15:00,
2013-04-22 15:20:00,77.5,55.1,29.94,East,81,4.0,8.0,46,0.00,,,0.00,Weather View 32 v70,2013-04-22 20:20:00,
2013-04-22 15:25:00,77.7,54.6,29.94,ESE,104,3.0,8.0,45,0.00,,,0.00,Weather View 32 v70,2013-04-22 20:25:00,
2013-04-22 15:34:00,77.5,55.1,29.91,East,89,3.0,8.0,46,0.00,,,0.00,Weather View 32 v70,2013-04-22 20:34:00,
2013-04-22 15:40:00,77.4,54.3,29.91,East,91,0.0,8.0,45,0.00,,,0.00,Weather View 32 v70,2013-04-22 20:40:00,
2013-04-22 15:45:00,77.5,55.1,29.91,East,93,3.0,8.0,46,0.00,,,0.00,Weather View 32 v70,2013-04-22 20:45:00,
2013-04-22 15:55:00,77.5,55.1,29.91,SSE,162,0.0,6.0,46,0.00,,,0.00,Weather View 32 v70,2013-04-22 20:55:00,
2013-04-22 16:00:00,77.5,54.5,29.91,East,90,2.0,6.0,45,0.00,,,0.00,Weather View 32 v70,2013-04-22 21:00:00,
2013-04-22 16:15:00,77.4,54.9,29.91,ESE,106,4.0,6.0,46,0.00,,,0.00,Weather View 32 v70,2013-04-22 21:15:00,
2013-04-22 16:24:00,76.3,53.9,29.91,ESE,110,2.0,6.0,46,0.00,,,0.00,Weather View 32 v70,2013-04-22 21:24:00,
2013-04-22 16:30:00,75.9,54.2,29.91,ESE,113,0.0,6.0,47,0.00,,,0.00,Weather View 32 v70,2013-04-22 21:30:00,
2013-04-22 16:35:00,75.7,54.0,29.91,East,95,4.0,6.0,47,0.00,,,0.00,Weather View 32 v70,2013-04-22 21:35:00,
2013-04-22 16:40:00,75.2,54.1,29.91,SE,137,3.0,6.0,48,0.00,,,0.00,Weather View 32 v70,2013-04-22 21:40:00,
2013-04-22 16:49:00,74.8,54.3,29.91,ENE,60,3.0,6.0,49,0.00,,,0.00,Weather View 32 v70,2013-04-22 21:49:00,
2013-04-22 16:54:00,74.8,53.8,29.91,East,91,3.0,6.0,48,0.00,,,0.00,Weather View 32 v70,2013-04-22 21:54:00,
2013-04-22 16:59:00,74.7,54.2,29.91,ESE,113,0.0,6.0,49,0.00,,,0.00,Weather View 32 v70,2013-04-22 21:59:00,
2013-04-22 17:04:00,74.5,54.0,29.91,East,82,0.0,6.0,49,0.00,,,0.00,Weather View 32 v70,2013-04-22 22:04:00,
2013-04-22 17:10:00,74.5,54.0,29.91,East,101,4.0,6.0,49,0.00,,,0.00,Weather View 32 v70,2013-04-22 22:10:00,
2013-04-22 17:20:00,73.9,54.1,29.91,East,87,0.0,6.0,50,0.00,,,0.00,Weather View 32 v70,2013-04-22 22:20:00,
2013-04-22 17:25:00,73.8,54.4,29.91,ESE,113,3.0,7.0,51,0.00,,,0.00,Weather View 32 v70,2013-04-22 22:25:00,
2013-04-22 17:30:00,73.6,54.3,29.91,East,86,0.0,7.0,51,0.00,,,0.00,Weather View 32 v70,2013-04-22 22:30:00,
2013-04-22 17:40:00,73.4,54.1,29.91,ESE,107,0.0,7.0,51,0.00,,,0.00,Weather View 32 v70,2013-04-22 22:40:00,
2013-04-22 17:45:00,73.4,54.1,29.91,East,96,0.0,7.0,51,0.00,,,0.00,Weather View 32 v70,2013-04-22 22:45:00,
2013-04-22 17:50:00,73.2,54.0,29.91,East,98,0.0,7.0,51,0.00,,,0.00,Weather View 32 v70,2013-04-22 22:50:00,
2013-04-22 18:00:00,72.9,54.2,29.91,East,92,4.0,7.0,52,0.00,,,0.00,Weather View 32 v70,2013-04-22 23:00:00,
2013-04-22 18:05:00,72.7,54.5,29.91,SE,125,0.0,7.0,53,0.00,,,0.00,Weather View 32 v70,2013-04-22 23:05:00,
2013-04-22 18:13:00,72.5,54.3,29.91,ESE,111,4.0,7.0,53,0.00,,,0.00,Weather View 32 v70,2013-04-22 23:13:00,
2013-04-22 18:19:00,71.8,53.7,29.91,East,90,4.0,7.0,53,0.00,,,0.00,Weather View 32 v70,2013-04-22 23:19:00,
2013-04-22 18:25:00,71.4,53.9,29.91,ESE,103,0.0,5.0,54,0.00,,,0.00,Weather View 32 v70,2013-04-22 23:25:00,
2013-04-22 18:30:00,71.1,54.0,29.91,ESE,103,0.0,5.0,55,0.00,,,0.00,Weather View 32 v70,2013-04-22 23:30:00,
2013-04-22 18:39:00,70.5,54.5,29.91,East,98,3.0,5.0,57,0.00,,,0.00,Weather View 32 v70,2013-04-22 23:39:00,
2013-04-22 18:44:00,70.2,54.2,29.91,ESE,109,0.0,5.0,57,0.00,,,0.00,Weather View 32 v70,2013-04-22 23:44:00,
2013-04-22 18:50:00,70.0,54.0,29.91,ESE,120,0.0,5.0,57,0.00,,,0.00,Weather View 32 v70,2013-04-22 23:50:00,
2013-04-22 18:59:00,69.4,54.4,29.91,East,93,3.0,5.0,59,0.00,,,0.00,Weather View 32 v70,2013-04-22 23:59:00,
2013-04-22 19:05:00,69.3,54.7,29.91,East,100,0.0,5.0,60,0.00,,,0.00,Weather View 32 v70,2013-04-23 00:05:00,
2013-04-22 19:13:00,69.1,55.0,29.91,East,94,2.0,5.0,61,0.00,,,0.00,Weather View 32 v70,2013-04-23 00:13:00,
2013-04-22 19:19:00,68.7,55.1,29.91,East,94,2.0,5.0,62,0.00,,,0.00,Weather View 32 v70,2013-04-23 00:19:00,
2013-04-22 19:25:00,68.5,55.0,29.91,East,93,0.0,5.0,62,0.00,,,0.00,Weather View 32 v70,2013-04-23 00:25:00,
2013-04-22 19:30:00,68.4,55.7,29.91,East,98,2.0,5.0,64,0.00,,,0.00,Weather View 32 v70,2013-04-23 00:30:00,
2013-04-22 19:40:00,68.0,55.8,29.91,East,98,0.0,5.0,65,0.00,,,0.00,Weather View 32 v70,2013-04-23 00:40:00,
2013-04-22 19:45:00,67.8,56.0,29.91,East,98,0.0,5.0,66,0.00,,,0.00,Weather View 32 v70,2013-04-23 00:45:00,
2013-04-22 19:50:00,67.8,56.4,29.94,East,98,0.0,5.0,67,0.00,,,0.00,Weather View 32 v70,2013-04-23 00:50:00,
2013-04-22 19:55:00,67.6,56.3,29.94,East,98,0.0,5.0,67,0.00,,,0.00,Weather View 32 v70,2013-04-23 00:55:00,
2013-04-22 20:05:00,67.5,56.5,29.91,East,98,0.0,4.0,68,0.00,,,0.00,Weather View 32 v70,2013-04-23 01:05:00,
2013-04-22 20:10:00,67.3,56.3,29.91,East,98,0.0,4.0,68,0.00,,,0.00,Weather View 32 v70,2013-04-23 01:10:00,
2013-04-22 20:15:00,67.3,56.7,29.91,East,98,0.0,4.0,69,0.00,,,0.00,Weather View 32 v70,2013-04-23 01:15:00,
2013-04-22 20:25:00,67.1,56.6,29.91,East,98,0.0,4.0,69,0.00,,,0.00,Weather View 32 v70,2013-04-23 01:25:00,
2013-04-22 20:35:00,66.7,56.6,29.91,East,98,0.0,3.0,70,0.00,,,0.00,Weather View 32 v70,2013-04-23 01:35:00,
2013-04-22 20:40:00,66.7,56.6,29.94,East,98,0.0,3.0,70,0.00,,,0.00,Weather View 32 v70,2013-04-23 01:40:00,
2013-04-22 20:45:00,66.7,56.6,29.94,East,98,0.0,3.0,70,0.00,,,0.00,Weather View 32 v70,2013-04-23 01:45:00,
2013-04-22 20:50:00,66.6,56.4,29.94,East,98,0.0,3.0,70,0.00,,,0.00,Weather View 32 v70,2013-04-23 01:50:00,
2013-04-22 20:55:00,66.6,56.4,29.94,East,98,0.0,3.0,70,0.00,,,0.00,Weather View 32 v70,2013-04-23 01:55:00,
2013-04-22 21:04:00,66.4,56.3,29.94,East,98,0.0,3.0,70,0.00,,,0.00,Weather View 32 v70,2013-04-23 02:04:00,
2013-04-22 21:09:00,66.4,56.3,29.94,East,99,0.0,4.0,70,0.00,,,0.00,Weather View 32 v70,2013-04-23 02:09:00,
2013-04-22 21:15:00,66.2,56.1,29.94,East,99,0.0,4.0,70,0.00,,,0.00,Weather View 32 v70,2013-04-23 02:15:00,
2013-04-22 21:25:00,66.2,56.5,29.94,East,99,0.0,4.0,71,0.00,,,0.00,Weather View 32 v70,2013-04-23 02:25:00,
2013-04-22 21:34:00,66.2,56.5,29.94,East,99,0.0,4.0,71,0.00,,,0.00,Weather View 32 v70,2013-04-23 02:34:00,
2013-04-22 21:39:00,66.2,56.5,29.94,East,99,0.0,4.0,71,0.00,,,0.00,Weather View 32 v70,2013-04-23 02:39:00,
2013-04-22 21:44:00,66.2,56.9,29.94,East,98,0.0,4.0,72,0.00,,,0.00,Weather View 32 v70,2013-04-23 02:44:00,
2013-04-22 21:50:00,66.2,56.9,29.94,East,99,0.0,4.0,72,0.00,,,0.00,Weather View 32 v70,2013-04-23 02:50:00,
2013-04-22 21:55:00,66.2,56.9,29.94,East,96,0.0,4.0,72,0.00,,,0.00,Weather View 32 v70,2013-04-23 02:55:00,
2013-04-22 22:00:00,66.2,56.9,29.94,East,95,0.0,4.0,72,0.00,,,0.00,Weather View 32 v70,2013-04-23 03:00:00,
2013-04-22 22:05:00,66.2,56.9,29.94,East,94,0.0,4.0,72,0.00,,,0.00,Weather View 32 v70,2013-04-23 03:05:00,
2013-04-22 22:10:00,66.2,56.9,29.94,East,94,0.0,4.0,72,0.00,,,0.00,Weather View 32 v70,2013-04-23 03:10:00,
2013-04-22 22:15:00,66.0,57.1,29.94,East,94,0.0,3.0,73,0.00,,,0.00,Weather View 32 v70,2013-04-23 03:15:00,
2013-04-22 22:25:00,66.0,57.1,29.94,East,94,0.0,3.0,73,0.00,,,0.00,Weather View 32 v70,2013-04-23 03:25:00,
2013-04-22 22:35:00,66.0,57.5,29.94,East,94,0.0,3.0,74,0.00,,,0.00,Weather View 32 v70,2013-04-23 03:35:00,
2013-04-22 22:40:00,66.0,57.5,29.94,East,94,0.0,3.0,74,0.00,,,0.00,Weather View 32 v70,2013-04-23 03:40:00,
2013-04-22 22:45:00,66.0,57.5,29.94,East,94,0.0,3.0,74,0.00,,,0.00,Weather View 32 v70,2013-04-23 03:45:00,
2013-04-22 22:50:00,65.8,57.3,29.94,East,94,0.0,3.0,74,0.00,,,0.00,Weather View 32 v70,2013-04-23 03:50:00,
2013-04-22 22:55:00,65.8,57.3,29.94,East,94,0.0,3.0,74,0.00,,,0.00,Weather View 32 v70,2013-04-23 03:55:00,
2013-04-22 23:05:00,65.8,57.3,29.94,East,94,0.0,3.0,74,0.00,,,0.00,Weather View 32 v70,2013-04-23 04:05:00,
2013-04-22 23:09:00,65.8,57.3,29.94,East,94,0.0,3.0,74,0.00,,,0.00,Weather View 32 v70,2013-04-23 04:09:00,
2013-04-22 23:15:00,65.7,57.1,29.94,East,94,0.0,3.0,74,0.00,,,0.00,Weather View 32 v70,2013-04-23 04:15:00,
2013-04-22 23:16:00,65.7,57.1,29.94,East,94,0.0,3.0,74,0.00,,,0.00,Weather View 32 v70,2013-04-23 04:16:00,
2013-04-22 23:24:00,65.5,56.9,29.94,East,94,0.0,3.0,74,0.00,,,0.00,Weather View 32 v70,2013-04-23 04:24:00,
2013-04-22 23:35:00,65.5,56.9,29.94,East,94,0.0,0.0,74,0.00,,,0.00,Weather View 32 v70,2013-04-23 04:35:00,
2013-04-22 23:40:00,65.3,56.8,29.94,East,94,0.0,0.0,74,0.00,,,0.00,Weather View 32 v70,2013-04-23 04:40:00,
2013-04-22 23:50:00,65.1,56.6,29.94,East,94,0.0,0.0,74,0.00,,,0.00,Weather View 32 v70,2013-04-23 04:50:00,
2013-04-22 23:55:00,65.1,57.0,29.94,East,94,0.0,0.0,75,0.00,,,0.00,Weather View 32 v70,2013-04-23 04:55:00,